Wind_Speed
3 2 2 2 2 3 3 2 3 3 3 4 4 4 4 4 5 5 5 6 6 5 6 6 6 6 6 6 6 6 6 6 7 7 7 6 6 6 5 5 5 6 6
3 3 3 2 2 2 3 3 3 3 4 4 4 4 4 5 5 5 6 6 6 6 6 6 6 6 6 6 6 6 6 6 7 7 7 7 6 6 6 6 5 5 6
4 4 3 3 3 3 3 3 3 3 4 4 5 5 5 5 5 6 6 7 7 7 7 7 7 7 7 7 7 7 7 7 7 8 8 8 8 7 7 7 6 6 6
5 4 3 3 3 3 3 3 4 4 5 5 6 6 6 5 5 6 7 7 8 7 7 8 8 8 8 8 8 8 8 8 8 8 8 8 8 8 8 8 7 7 7
6 5 4 4 4 4 4 5 5 5 5 6 6 6 6 6 6 6 7 8 8 8 8 8 9 9 9 9 8 9 9 9 9 9 9 9 9 9 9 9 9 8 8
6 5 5 5 5 5 6 6 6 6 6 6 7 7 6 6 6 6 7 7 8 8 8 8 8 9 9 9 9 10 9 9 9 10 9 9 9 10 10 10 10 10 9
6 7 7 7 7 7 6 7 6 6 7 7 7 7 7 7 6 6 6 7 8 8 8 8 8 9 9 9 10 10 10 10 10 10 10 10 10 10 10 11 11 11 10
7 8 7 8 8 8 8 8 8 7 7 7 7 7 7 7 7 6 6 6 7 7 7 8 8 8 10 10 10 10 11 11 11 10 9 10 11 11 11 11 11 11 11
8 8 9 9 9 9 8 9 9 8 8 7 7 8 7 7 7 7 7 7 6 7 7 8 8 8 8 9 10 10 10 10 10 10 10 10 10 11 10 11 11 11 11
8 8 8 9 9 9 9 9 9 9 8 8 8 8 8 8 8 8 9 8 7 7 8 8 8 9 8 9 10 9 9 10 11 11 11 11 10 10 10 10 11 11 11
8 8 8 9 9 8 9 8 8 8 8 8 8 8 8 9 9 10 9 9 9 8 8 8 9 10 10 10 10 10 10 10 10 10 10 10 10 11 10 10 10 10 11
7 7 8 8 8 7 8 8 8 8 8 8 8 8 9 9 9 10 9 9 9 9 9 9 9 9 10 11 11 11 10 10 10 10 10 10 10 10 10 10 9 9 10
7 7 7 7 7 7 8 8 8 8 8 8 9 9 9 9 9 9 9 9 9 9 9 10 10 9 10 10 11 11 11 11 11 11 10 11 11 10 10 10 9 9 10
8 8 8 8 7 8 7 8 8 8 8 9 9 9 8 8 9 9 8 8 9 9 9 10 10 10 10 10 10 11 11 11 11 10 10 10 11 10 10 10 9 9 9
8 8 7 7 8 7 7 7 8 8 8 9 9 8 9 9 9 9 9 8 9 9 9 10 10 10 10 10 10 10 10 10 10 10 10 10 10 10 9 9 9 9 9
8 8 7 7 7 7 7 7 7 8 8 8 8 8 9 9 9 8 8 8 8 9 9 9 10 9 9 9 10 9 9 9 10 10 10 9 9 9 8 8 8 9 9
8 7 7 7 7 7 7 7 7 7 8 8 7 7 8 8 7 8 8 8 8 8 9 9 9 10 9 10 9 9 9 9 9 9 9 9 9 9 9 9 9 9 9
7 7 7 6 6 6 6 7 7 7 7 8 8 7 7 7 7 7 8 8 8 8 8 8 9 10 9 9 9 9 8 9 9 9 9 9 10 10 10 10 10 10 10
7 7 6 6 6 6 6 6 6 7 7 8 7 7 7 7 7 7 7 7 7 8 8 8 8 8 8 8 9 8 8 9 9 9 9 10 10 10 10 11 11 11 11
6 6 6 6 5 5 6 6 6 6 7 7 6 6 6 6 6 7 7 7 7 7 7 7 7 7 7 8 8 8 9 9 9 9 8 9 10 10 10 10 10 10 10
6 7 6 5 5 5 5 5 5 5 6 6 6 6 6 6 5 5 6 6 6 6 6 6 6 6 7 7 8 8 9 9 9 8 8 9 10 10 10 10 9 9 9
6 6 6 6 6 5 5 5 4 5 4 4 4 4 4 4 4 3 4 4 4 5 5 5 6 6 7 7 7 8 8 8 8 8 8 8 9 9 10 10 10 10 10
6 6 6 6 6 5 5 5 4 4 4 3 3 2 2 2 3 3 3 3 3 4 5 5 5 6 6 6 7 7 7 7 7 7 7 7 8 8 8 9 9 10 10
6 6 6 6 5 5 4 4 4 4 3 3 2 1 1 2 2 3 2 2 3 4 4 4 4 4 4 5 5 5 6 5 6 6 6 6 7 7 7 8 8 9 9
6 6 6 6 5 5 4 4 3 3 3 3 2 2 3 3 2 2 3 2 2 3 3 4 4 4 4 4 5 5 5 6 6 5 6 6 7 7 7 8 8 9 9
6 5 5 5 5 5 4 3 3 2 2 2 3 3 3 3 2 3 3 3 3 3 3 4 4 4 4 4 5 5 5 5 5 6 7 7 8 8 8 8 9 9 9
Wind_Direction
355 356 357 355 351 335 325 312 287 281 273 272 278 281 281 279 270 252 243 236 233 231 218 213 215 217 213 210 212 216 221 222 221 214 214 216 216 216 214 213 213 212 215
334 331 328 337 350 348 333 320 287 280 275 271 278 277 276 279 274 257 241 235 236 232 227 225 224 226 224 220 219 223 225 228 228 223 221 223 226 222 220 220 222 221 224
323 322 319 321 327 327 319 310 296 281 277 275 274 275 274 272 271 260 243 236 236 234 230 232 234 234 234 232 230 231 232 234 234 228 225 227 228 227 227 230 233 232 233
312 310 307 309 314 309 299 290 287 280 282 277 274 272 272 272 270 260 246 246 242 239 236 236 238 237 238 237 235 237 241 238 236 237 232 230 230 231 231 232 235 238 241
306 299 292 298 301 298 290 287 283 280 284 278 279 278 275 272 268 260 249 250 246 245 243 242 243 240 241 241 240 240 242 244 240 239 238 235 232 235 238 236 235 238 241
304 297 293 287 286 288 286 283 279 282 285 281 281 279 276 274 270 261 250 249 249 249 245 244 246 244 243 243 242 241 240 244 246 243 239 238 237 239 239 239 238 239 240
299 295 294 290 285 282 285 283 280 281 285 282 283 282 276 276 278 269 256 252 247 246 244 243 244 242 245 244 241 241 241 245 246 244 241 242 242 241 240 240 241 242 242
293 293 289 290 288 283 281 279 279 279 281 283 283 279 277 277 275 269 260 253 248 248 247 246 244 242 242 242 243 242 240 242 244 244 246 247 246 244 243 243 243 244 244
292 292 290 291 290 285 280 279 278 277 274 278 282 278 275 274 273 266 265 260 257 259 255 249 247 243 243 244 243 243 242 242 245 243 244 245 245 246 245 244 244 243 239
297 290 290 291 295 290 282 279 279 277 274 277 280 277 273 275 273 271 267 259 257 257 254 251 250 247 247 245 244 245 243 241 242 244 247 247 247 248 247 247 245 246 247
298 294 294 293 294 290 282 277 277 276 274 274 279 276 272 273 275 274 268 263 259 257 255 253 251 248 248 247 245 245 243 241 245 247 249 249 249 251 249 246 247 249 251
304 301 299 298 292 287 283 278 276 273 274 277 281 280 275 276 277 274 265 263 262 260 257 257 256 253 249 247 246 243 244 243 247 247 247 245 247 247 246 248 251 251 252
306 303 302 301 292 289 288 279 276 275 275 278 280 277 274 273 274 271 267 264 263 263 258 257 257 255 252 252 251 247 245 246 248 248 245 245 247 246 248 252 255 255 250
308 302 302 299 291 289 285 279 274 276 279 281 279 278 280 279 278 274 269 264 263 263 262 260 258 255 252 250 248 246 245 247 248 248 247 245 245 246 250 253 254 256 252
313 307 302 300 296 291 283 279 275 273 278 280 279 280 283 284 281 272 267 265 262 261 261 259 257 255 257 255 253 250 248 248 245 246 246 243 246 247 248 248 252 254 254
315 311 306 305 300 294 287 283 280 280 279 279 283 286 285 283 279 272 266 266 263 259 258 259 258 258 256 255 253 252 252 250 247 249 249 246 246 246 247 250 255 254 256
316 312 309 307 303 293 287 282 280 279 280 281 286 288 283 278 278 272 267 265 263 261 262 260 257 255 252 253 251 248 249 253 254 250 250 250 249 247 248 251 256 258 258
323 316 309 305 301 294 286 282 283 281 282 283 285 287 285 279 278 274 271 268 261 261 260 259 258 257 256 253 250 245 244 247 250 251 254 253 249 247 250 252 256 261 260
321 318 313 313 305 296 288 286 285 283 291 290 282 281 283 283 280 274 270 269 263 260 260 259 257 256 254 250 245 241 243 246 250 252 252 251 250 247 249 253 258 262 263
318 321 319 314 309 307 298 294 292 289 290 290 284 279 276 276 275 269 266 260 258 258 256 258 260 257 254 246 243 243 247 249 251 251 250 250 250 251 255 262 261 260 261
321 327 326 320 313 311 310 306 305 298 295 290 281 280 278 278 274 267 256 253 252 247 250 253 257 255 248 245 244 245 247 248 251 249 248 248 251 256 260 263 265 261 261
320 323 325 324 323 315 311 313 316 316 311 302 284 279 272 275 269 268 256 246 240 239 247 258 259 254 249 245 244 248 250 252 250 247 249 251 253 259 264 267 267 264 265
318 322 327 326 323 314 308 308 313 320 322 317 310 288 269 270 273 272 262 242 239 244 253 263 270 262 252 246 249 253 253 255 252 250 252 258 262 264 267 269 269 266 266
323 322 327 330 323 316 305 303 308 317 324 322 321 298 296 290 283 278 271 266 258 256 255 260 268 265 252 246 251 257 259 257 247 251 254 260 264 267 268 265 265 265 266
327 325 325 323 322 316 304 301 306 308 312 305 288 284 303 311 296 290 286 289 279 266 264 265 264 267 267 265 264 266 269 258 246 250 258 262 263 267 269 266 266 270 271
333 330 324 323 325 319 303 293 298 295 298 300 298 286 290 300 306 306 293 287 285 267 263 265 264 269 278 277 274 272 271 258 253 253 256 264 268 271 272 271 272 276 278
Height
5883 5882 5881 5881 5880 5880 5880 5879 5879 5879 5879 5879 5879 5878 5878 5878 5877 5876 5876 5876 5876 5876 5876 5876 5877 5877 5877 5877 5878 5878 5879 5879 5879 5880 5880 5880 5881 5881 5881 5882 5882 5883 5883
5882 5881 5881 5880 5880 5879 5879 5879 5879 5878 5878 5878 5878 5877 5877 5877 5876 5876 5876 5876 5876 5876 5875 5875 5876 5876 5876 5877 5877 5877 5878 5878 5878 5879 5879 5880 5880 5880 5881 5881 5882 5882 5883
5881 5881 5880 5880 5880 5879 5879 5878 5878 5878 5877 5877 5877 5877 5876 5876 5875 5875 5875 5875 5875 5875 5875 5875 5875 5875 5875 5876 5876 5877 5877 5877 5877 5878 5878 5879 5879 5879 5880 5880 5881 5881 5881
5881 5880 5880 5879 5879 5879 5878 5878 5877 5877 5877 5876 5876 5875 5875 5875 5874 5874 5874 5874 5874 5874 5874 5874 5874 5874 5874 5875 5875 5875 5876 5876 5876 5877 5877 5878 5878 5878 5879 5879 5880 5880 5880
5880 5879 5879 5878 5878 5878 5877 5877 5876 5876 5875 5875 5874 5874 5874 5873 5873 5872 5872 5872 5872 5872 5872 5872 5873 5873 5873 5873 5874 5874 5874 5875 5875 5875 5876 5876 5877 5877 5877 5878 5878 5879 5879
5878 5878 5878 5877 5877 5876 5876 5876 5875 5875 5874 5874 5873 5873 5872 5872 5871 5871 5871 5871 5871 5871 5871 5871 5871 5871 5871 5872 5872 5872 5873 5873 5873 5874 5874 5875 5875 5876 5876 5876 5877 5877 5877
5877 5877 5876 5876 5875 5875 5874 5874 5874 5873 5873 5872 5872 5871 5871 5870 5870 5870 5869 5869 5869 5869 5869 5869 5869 5870 5869 5870 5870 5871 5871 5871 5872 5872 5873 5873 5874 5874 5874 5875 5875 5875 5876
5876 5875 5875 5874 5874 5873 5873 5872 5872 5872 5871 5871 5870 5870 5869 5869 5868 5868 5868 5868 5867 5867 5868 5868 5868 5868 5868 5868 5869 5869 5870 5870 5870 5871 5871 5871 5872 5872 5872 5873 5873 5873 5874
5874 5873 5873 5872 5872 5871 5871 5870 5870 5870 5869 5869 5868 5868 5868 5867 5867 5867 5867 5866 5866 5866 5866 5866 5866 5866 5866 5867 5867 5867 5868 5868 5869 5869 5869 5870 5870 5870 5870 5871 5871 5872 5872
5872 5872 5871 5870 5870 5869 5869 5868 5868 5868 5867 5867 5867 5866 5866 5865 5865 5865 5865 5864 5864 5864 5864 5864 5864 5864 5864 5865 5865 5866 5866 5866 5867 5867 5867 5868 5868 5868 5868 5869 5869 5870 5870
5871 5870 5869 5868 5868 5867 5867 5866 5866 5866 5866 5865 5865 5864 5864 5863 5863 5863 5862 5862 5862 5862 5862 5862 5862 5862 5862 5863 5863 5864 5864 5864 5865 5865 5865 5866 5866 5866 5867 5867 5867 5868 5868
5869 5868 5867 5866 5866 5865 5865 5864 5864 5864 5864 5863 5863 5862 5862 5862 5861 5861 5860 5860 5860 5860 5860 5860 5860 5860 5860 5860 5861 5861 5862 5862 5863 5863 5863 5863 5864 5864 5865 5865 5865 5866 5866
5867 5866 5866 5865 5864 5863 5863 5862 5862 5862 5862 5861 5861 5860 5860 5859 5859 5859 5858 5858 5858 5858 5858 5858 5858 5858 5858 5858 5859 5859 5860 5860 5860 5861 5861 5861 5862 5862 5862 5863 5863 5863 5864
5865 5864 5864 5863 5862 5861 5861 5860 5860 5860 5860 5859 5859 5858 5857 5857 5857 5857 5856 5856 5856 5856 5856 5856 5856 5856 5856 5856 5856 5857 5857 5858 5858 5859 5859 5859 5860 5860 5860 5861 5861 5861 5861
5863 5862 5862 5861 5860 5859 5859 5859 5858 5858 5858 5857 5857 5856 5855 5855 5855 5854 5854 5854 5854 5854 5854 5854 5854 5854 5854 5854 5854 5854 5855 5855 5856 5856 5857 5857 5858 5858 5858 5859 5859 5859 5859
5861 5860 5860 5859 5858 5858 5857 5857 5856 5856 5855 5855 5854 5854 5853 5853 5852 5852 5852 5852 5851 5852 5851 5851 5852 5852 5852 5852 5852 5852 5853 5853 5854 5854 5855 5855 5856 5856 5856 5857 5857 5857 5857
5859 5858 5858 5857 5857 5856 5855 5855 5854 5854 5853 5853 5852 5852 5851 5851 5850 5850 5850 5849 5849 5849 5849 5849 5849 5850 5850 5850 5850 5850 5851 5851 5852 5852 5853 5853 5854 5854 5854 5855 5855 5855 5855
5858 5857 5856 5855 5855 5854 5853 5853 5852 5852 5851 5851 5850 5850 5849 5848 5848 5848 5848 5847 5847 5847 5847 5847 5847 5847 5848 5848 5848 5849 5849 5850 5850 5850 5851 5851 5851 5852 5852 5852 5853 5853 5853
5857 5856 5855 5854 5853 5852 5852 5851 5850 5850 5849 5848 5848 5847 5847 5846 5846 5846 5846 5845 5845 5845 5845 5845 5845 5845 5846 5846 5846 5847 5847 5848 5848 5848 5849 5849 5849 5849 5850 5850 5850 5851 5851
5855 5854 5853 5853 5852 5851 5850 5850 5849 5848 5847 5846 5846 5845 5845 5844 5844 5844 5843 5843 5843 5843 5843 5843 5844 5844 5844 5844 5845 5845 5845 5846 5846 5846 5846 5847 5847 5847 5847 5848 5848 5848 5848
5854 5853 5852 5851 5850 5849 5849 5848 5847 5846 5845 5845 5844 5843 5843 5843 5842 5842 5842 5842 5842 5842 5842 5842 5842 5842 5842 5843 5843 5843 5844 5844 5844 5844 5844 5844 5844 5844 5845 5845 5845 5845 5846
5853 5852 5851 5850 5849 5848 5847 5846 5846 5845 5844 5843 5843 5842 5842 5841 5841 5840 5840 5840 5840 5840 5841 5841 5841 5841 5841 5841 5842 5842 5842 5842 5842 5842 5842 5842 5842 5842 5842 5842 5843 5843 5843
5852 5851 5850 5849 5848 5847 5846 5846 5845 5844 5843 5843 5842 5841 5841 5841 5840 5840 5839 5839 5839 5839 5840 5840 5839 5839 5839 5840 5840 5840 5840 5840 5840 5841 5841 5841 5840 5840 5840 5840 5840 5840 5841
5851 5850 5848 5848 5847 5846 5845 5845 5844 5844 5843 5843 5842 5841 5841 5840 5840 5840 5839 5839 5839 5839 5839 5839 5839 5838 5838 5838 5839 5839 5839 5839 5839 5839 5839 5839 5839 5838 5838 5838 5838 5838 5838
5850 5849 5848 5847 5846 5845 5845 5844 5843 5843 5842 5842 5842 5841 5841 5840 5840 5839 5839 5838 5838 5838 5838 5838 5838 5838 5837 5837 5837 5837 5837 5837 5837 5838 5838 5837 5837 5837 5837 5836 5836 5836 5836
5849 5848 5847 5846 5845 5845 5844 5843 5843 5842 5842 5841 5841 5841 5840 5840 5839 5839 5838 5838 5837 5837 5837 5837 5837 5837 5836 5836 5836 5836 5836 5836 5836 5836 5836 5836 5836 5836 5835 5835 5834 5834 5834